Temp
-8 -7 -6 -6 -7 -9 -9 -8 -9 -8 -6 -6 -6 -5 -5 -5 -4 -5 -5 -5 -5 -5 -5 -5 -5 -5 -4 -4 -4 -4 -4 -4 -4 -4 -4 -4 -5 -6 -6 -6 -7 -7 -8 -8
-8 -6 -7 -7 -7 -8 -8 -8 -8 -8 -6 -6 -6 -5 -5 -5 -5 -4 -5 -5 -5 -5 -4 -5 -5 -4 -4 -4 -4 -4 -4 -4 -4 -4 -4 -5 -5 -6 -6 -7 -8 -8 -8 -9
-7 -6 -7 -7 -7 -7 -8 -8 -8 -8 -7 -7 -6 -5 -5 -5 -4 -4 -4 -4 -4 -4 -4 -4 -4 -4 -3 -4 -4 -4 -3 -3 -4 -4 -4 -5 -6 -6 -6 -7 -8 -9 -9 -9
-7 -8 -7 -7 -7 -7 -8 -8 -8 -8 -7 -8 -7 -7 -6 -5 -4 -4 -4 -4 -4 -4 -4 -4 -4 -3 -3 -3 -3 -3 -3 -3 -4 -4 -4 -5 -6 -6 -7 -8 -9 -9 -9 -9
-7 -7 -6 -7 -7 -7 -7 -9 -8 -8 -7 -8 -7 -6 -7 -5 -4 -4 -4 -4 -4 -3 -4 -4 -4 -3 -3 -3 -3 -3 -3 -3 -4 -4 -5 -5 -6 -6 -7 -8 -8 -9 -9 -9
-7 -7 -7 -6 -7 -8 -8 -8 -8 -8 -8 -8 -8 -7 -7 -6 -5 -4 -4 -4 -4 -3 -4 -3 -3 -2 -3 -3 -3 -3 -3 -3 -4 -4 -5 -6 -6 -7 -7 -7 -8 -9 -9 -9
-7 -6 -7 -7 -7 -8 -8 -8 -9 -9 -8 -7 -7 -7 -6 -7 -6 -5 -4 -3 -4 -3 -4 -3 -3 -3 -3 -3 -3 -3 -3 -3 -4 -4 -5 -6 -6 -7 -7 -8 -8 -9 -9 -9
-7 -7 -6 -6 -7 -7 -8 -9 -8 -8 -7 -7 -7 -7 -7 -6 -6 -5 -4 -4 -3 -3 -3 -4 -3 -3 -3 -3 -3 -3 -3 -3 -4 -4 -5 -6 -6 -6 -8 -8 -9 -9 -10 -9
-7 -6 -6 -6 -6 -7 -8 -8 -8 -8 -7 -7 -7 -6 -6 -7 -6 -5 -4 -3 -3 -3 -3 -3 -3 -3 -3 -3 -2 -3 -3 -3 -4 -4 -5 -5 -6 -7 -7 -8 -9 -9 -9 -9
-7 -7 -6 -7 -6 -7 -8 -7 -9 -8 -8 -7 -7 -7 -7 -7 -6 -5 -4 -3 -3 -3 -3 -3 -3 -3 -3 -3 -3 -3 -3 -3 -4 -4 -5 -5 -6 -7 -7 -8 -9 -9 -9 -9
-8 -8 -7 -7 -6 -7 -7 -8 -9 -8 -8 -7 -7 -6 -7 -7 -6 -5 -4 -3 -3 -3 -3 -3 -3 -3 -3 -3 -3 -3 -3 -3 -4 -4 -5 -5 -6 -7 -7 -8 -9 -9 -9 -9
-7 -7 -8 -7 -6 -7 -7 -7 -7 -8 -8 -8 -7 -6 -6 -6 -6 -4 -4 -4 -4 -4 -4 -3 -3 -3 -3 -3 -3 -3 -3 -3 -4 -4 -4 -5 -6 -7 -7 -8 -9 -9 -9 -9
-8 -8 -8 -7 -7 -7 -7 -7 -7 -8 -8 -8 -7 -6 -6 -6 -6 -4 -4 -4 -4 -4 -4 -4 -4 -4 -4 -3 -3 -3 -3 -4 -4 -4 -5 -5 -6 -7 -8 -9 -9 -9 -9 -9
-8 -8 -7 -6 -5 -6 -7 -7 -8 -8 -8 -7 -7 -7 -6 -6 -6 -5 -5 -4 -4 -4 -4 -4 -4 -4 -4 -4 -4 -4 -4 -4 -4 -5 -5 -6 -7 -8 -9 -9 -9 -9 -9 -9
-9 -8 -8 -7 -8 -7 -6 -7 -7 -8 -8 -8 -7 -7 -7 -7 -6 -6 -5 -4 -5 -5 -5 -5 -5 -4 -4 -4 -4 -4 -4 -4 -5 -5 -5 -6 -7 -8 -9 -9 -9 -9 -9 -9
-9 -8 -8 -7 -7 -6 -7 -7 -7 -7 -7 -8 -7 -7 -6 -7 -6 -5 -6 -6 -6 -5 -5 -5 -5 -5 -5 -4 -4 -4 -4 -5 -5 -5 -6 -7 -7 -8 -9 -9 -9 -9 -9 -9
-9 -9 -8 -7 -8 -7 -6 -6 -7 -7 -7 -7 -7 -7 -7 -7 -6 -6 -5 -6 -6 -6 -6 -6 -6 -5 -5 -5 -5 -5 -5 -5 -5 -6 -7 -7 -7 -8 -8 -9 -9 -9 -9 -8
-9 -9 -8 -8 -8 -8 -5 -6 -7 -7 -6 -6 -6 -6 -7 -7 -7 -6 -6 -5 -5 -6 -6 -7 -7 -6 -6 -6 -6 -5 -5 -5 -6 -6 -7 -7 -7 -7 -7 -8 -9 -9 -9 -8
-10 -9 -9 -9 -8 -7 -6 -7 -6 -6 -5 -5 -5 -6 -7 -7 -7 -6 -6 -5 -5 -6 -7 -6 -6 -6 -6 -6 -6 -6 -6 -6 -7 -7 -7 -7 -7 -7 -7 -8 -8 -8 -9 -9
-11 -10 -9 -9 -8 -8 -7 -7 -6 -6 -6 -5 -5 -5 -6 -7 -7 -6 -6 -6 -6 -6 -7 -6 -6 -6 -6 -6 -6 -6 -6 -6 -7 -7 -7 -7 -7 -7 -8 -8 -8 -8 -9 -9
-12 -10 -9 -9 -8 -8 -7 -8 -7 -7 -5 -6 -5 -5 -6 -6 -6 -7 -7 -7 -6 -6 -7 -6 -6 -6 -6 -6 -6 -6 -6 -6 -7 -7 -7 -7 -7 -8 -8 -8 -8 -8 -9 -9
-13 -11 -9 -9 -9 -9 -8 -7 -7 -6 -6 -6 -6 -5 -5 -6 -6 -6 -7 -6 -6 -6 -6 -6 -6 -6 -6 -6 -6 -6 -6 -6 -7 -6 -6 -7 -7 -7 -8 -8 -8 -8 -9 -9
-13 -12 -11 -10 -9 -9 -9 -8 -7 -7 -6 -6 -5 -5 -5 -5 -6 -6 -6 -6 -6 -6 -6 -6 -6 -6 -6 -6 -6 -6 -7 -7 -7 -6 -6 -7 -7 -7 -8 -8 -8 -8 -8 -8
-14 -12 -11 -9 -9 -9 -9 -8 -7 -7 -6 -6 -6 -6 -5 -5 -5 -5 -6 -6 -6 -6 -6 -6 -7 -7 -6 -7 -6 -6 -6 -6 -6 -6 -6 -7 -7 -7 -8 -8 -8 -8 -8 -8
-14 -13 -11 -10 -9 -9 -9 -8 -7 -7 -7 -6 -6 -5 -5 -5 -5 -5 -5 -6 -6 -6 -6 -6 -6 -6 -6 -7 -7 -6 -6 -6 -6 -6 -6 -7 -7 -7 -8 -8 -8 -8 -8 -8
-14 -14 -13 -11 -9 -9 -8 -8 -7 -7 -7 -7 -6 -6 -5 -5 -5 -6 -5 -6 -6 -6 -6 -6 -6 -6 -6 -6 -6 -6 -6 -6 -6 -7 -7 -7 -7 -8 -8 -8 -8 -8 -8 -8
Height
5882 5885 5889 5897 5902 5905 5906 5909 5910 5908 5908 5908 5908 5908 5908 5908 5908 5908 5907 5907 5908 5910 5912 5915 5919 5922 5925 5927 5930 5933 5936 5938 5940 5941 5941 5942 5942 5941 5940 5940 5939 5937 5936 5934
5876 5877 5888 5895 5898 5900 5903 5905 5907 5906 5907 5908 5907 5907 5907 5908 5908 5908 5908 5908 5909 5912 5914 5917 5920 5923 5926 5929 5932 5934 5937 5940 5942 5943 5943 5944 5943 5942 5942 5941 5940 5939 5938 5936
5870 5881 5884 5888 5892 5897 5900 5903 5905 5905 5904 5906 5907 5908 5908 5909 5909 5909 5910 5911 5911 5914 5916 5918 5921 5924 5928 5931 5933 5935 5938 5941 5943 5944 5945 5945 5945 5944 5943 5943 5942 5941 5940 5938
5866 5875 5877 5883 5888 5894 5898 5901 5900 5901 5903 5909 5906 5912 5908 5909 5909 5910 5911 5913 5913 5915 5917 5920 5923 5926 5929 5931 5934 5937 5940 5942 5944 5945 5946 5946 5946 5945 5944 5944 5943 5942 5941 5940
5860 5866 5871 5876 5884 5891 5895 5897 5897 5898 5900 5902 5905 5907 5911 5908 5908 5910 5912 5913 5914 5916 5918 5919 5922 5926 5929 5933 5935 5938 5941 5943 5944 5945 5946 5946 5946 5945 5945 5945 5944 5943 5942 5940
5855 5862 5866 5878 5883 5885 5890 5892 5893 5895 5898 5902 5903 5905 5911 5909 5907 5908 5910 5913 5915 5916 5919 5920 5923 5926 5930 5934 5937 5940 5942 5943 5944 5945 5946 5947 5946 5946 5946 5945 5943 5943 5941 5940
5844 5849 5858 5866 5870 5876 5881 5887 5892 5895 5897 5901 5900 5902 5907 5906 5906 5908 5909 5911 5915 5917 5919 5922 5925 5929 5932 5935 5938 5940 5942 5943 5944 5944 5946 5946 5946 5946 5946 5945 5944 5943 5941 5940
5836 5840 5847 5856 5861 5870 5875 5883 5890 5893 5895 5901 5898 5901 5904 5903 5904 5906 5908 5910 5913 5917 5919 5922 5926 5929 5932 5935 5938 5940 5942 5943 5944 5944 5945 5945 5946 5945 5945 5944 5943 5943 5942 5941
5826 5836 5844 5853 5861 5866 5872 5873 5887 5890 5889 5893 5899 5901 5901 5902 5902 5904 5906 5908 5912 5916 5919 5922 5926 5930 5933 5936 5938 5939 5941 5943 5944 5944 5944 5944 5945 5945 5944 5944 5943 5942 5942 5940
5818 5829 5833 5847 5851 5857 5864 5876 5878 5884 5886 5893 5898 5899 5902 5901 5902 5902 5903 5905 5909 5913 5918 5921 5925 5929 5932 5935 5937 5938 5940 5942 5943 5943 5943 5944 5944 5944 5944 5944 5943 5942 5941 5940
5807 5818 5827 5834 5837 5848 5856 5861 5869 5880 5884 5890 5896 5899 5899 5899 5899 5900 5901 5902 5907 5913 5918 5920 5924 5928 5931 5934 5936 5938 5939 5940 5941 5942 5942 5942 5943 5943 5943 5943 5942 5941 5941 5939
5799 5808 5815 5822 5838 5846 5850 5859 5864 5870 5877 5884 5891 5900 5896 5897 5896 5899 5902 5903 5907 5911 5915 5919 5922 5927 5930 5933 5935 5936 5938 5939 5940 5940 5941 5941 5942 5942 5942 5942 5941 5940 5939 5938
5788 5793 5805 5816 5826 5831 5836 5849 5857 5866 5876 5876 5885 5893 5894 5895 5896 5898 5900 5903 5906 5910 5913 5917 5921 5925 5928 5931 5933 5935 5936 5937 5938 5938 5939 5940 5940 5940 5940 5940 5939 5939 5938 5936
5775 5784 5796 5809 5822 5827 5828 5839 5848 5857 5863 5874 5878 5888 5892 5894 5895 5896 5899 5902 5906 5910 5913 5917 5919 5923 5926 5929 5931 5933 5934 5935 5936 5936 5937 5937 5937 5938 5938 5938 5938 5937 5936 5934
5761 5776 5791 5803 5812 5818 5825 5835 5840 5846 5858 5866 5877 5881 5890 5891 5893 5895 5897 5900 5904 5908 5912 5915 5919 5922 5925 5928 5929 5931 5932 5933 5934 5935 5934 5935 5936 5936 5936 5936 5936 5935 5933 5930
5755 5770 5779 5790 5799 5804 5813 5825 5834 5842 5850 5860 5868 5878 5884 5886 5890 5893 5895 5900 5902 5906 5910 5914 5917 5920 5923 5926 5927 5928 5929 5930 5932 5932 5931 5933 5934 5933 5934 5933 5933 5932 5929 5927
5744 5753 5766 5780 5790 5798 5804 5813 5824 5835 5844 5853 5858 5869 5877 5882 5885 5890 5892 5896 5901 5906 5908 5911 5915 5919 5921 5924 5925 5926 5927 5928 5928 5929 5930 5931 5932 5931 5931 5930 5929 5927 5925 5922
5732 5745 5758 5772 5781 5779 5800 5809 5819 5826 5836 5845 5854 5866 5871 5876 5882 5886 5890 5893 5897 5902 5906 5909 5913 5916 5918 5920 5922 5923 5924 5924 5925 5926 5928 5929 5929 5929 5928 5926 5925 5923 5920 5918
5724 5735 5748 5760 5768 5784 5792 5800 5809 5817 5827 5833 5844 5856 5862 5869 5875 5878 5883 5888 5893 5897 5902 5906 5910 5914 5915 5916 5918 5920 5922 5922 5923 5924 5925 5925 5925 5925 5925 5923 5921 5919 5917 5914
5714 5725 5739 5752 5761 5769 5787 5793 5802 5810 5814 5828 5838 5847 5852 5860 5862 5872 5879 5884 5889 5894 5898 5902 5905 5908 5910 5912 5913 5915 5918 5920 5921 5922 5922 5922 5922 5921 5920 5919 5916 5914 5913 5910
5702 5716 5731 5740 5751 5764 5771 5780 5790 5798 5817 5824 5832 5840 5848 5851 5860 5870 5873 5878 5883 5887 5891 5895 5899 5903 5907 5909 5910 5911 5914 5917 5918 5918 5919 5919 5919 5917 5916 5914 5913 5910 5908 5905
5697 5709 5722 5731 5744 5752 5763 5771 5781 5792 5801 5813 5823 5830 5839 5849 5854 5862 5865 5872 5876 5881 5885 5888 5892 5897 5901 5903 5905 5907 5910 5913 5913 5914 5915 5914 5914 5913 5912 5911 5909 5905 5902 5899
5691 5701 5711 5723 5735 5744 5757 5764 5773 5785 5796 5804 5813 5819 5826 5834 5844 5853 5859 5864 5868 5874 5877 5880 5885 5889 5894 5897 5899 5903 5906 5906 5908 5909 5910 5909 5909 5908 5907 5906 5903 5899 5896 5892
5680 5693 5702 5715 5726 5736 5750 5753 5765 5776 5785 5795 5802 5811 5819 5826 5832 5839 5848 5853 5859 5864 5868 5872 5876 5881 5887 5890 5893 5897 5898 5901 5902 5903 5904 5904 5903 5902 5901 5900 5896 5893 5889 5886
5672 5685 5693 5707 5714 5731 5736 5746 5754 5766 5775 5784 5791 5802 5812 5817 5824 5831 5839 5844 5849 5853 5856 5862 5869 5874 5879 5882 5886 5889 5892 5894 5895 5895 5896 5896 5895 5894 5894 5892 5889 5886 5883 5880
5665 5678 5688 5694 5712 5722 5732 5740 5748 5759 5766 5774 5783 5792 5801 5809 5816 5820 5827 5833 5835 5840 5845 5853 5860 5865 5869 5873 5877 5880 5884 5885 5887 5886 5886 5887 5887 5887 5887 5885 5882 5879 5876 5873
Wind_Speed
32 31 32 25 17 19 17 13 14 14 16 13 10 9 8 10 5 5 6 9 12 16 19 22 24 23 25 23 21 21 19 16 16 14 13 12 10 10 12 11 10 13 16 19
38 35 26 22 24 21 14 13 13 17 15 14 12 11 9 10 7 6 8 11 14 18 21 23 24 24 25 24 23 22 19 18 17 14 12 11 10 12 13 12 15 16 17 19
40 25 27 29 29 24 18 11 16 17 16 12 13 12 12 11 9 8 9 12 16 16 19 21 24 26 25 24 23 22 21 18 16 13 11 10 11 12 13 15 16 17 18 19
40 34 33 30 27 25 21 15 21 25 21 6 15 8 16 14 11 11 9 11 14 14 15 17 22 24 25 25 24 22 20 18 15 13 10 10 12 14 15 16 16 18 18 19
43 40 35 33 26 23 19 21 22 22 22 19 14 16 9 15 14 13 12 11 13 15 15 14 24 28 27 27 25 23 20 17 13 12 10 11 13 15 16 16 19 19 20 22
47 43 40 25 26 28 24 23 23 19 19 19 14 17 9 13 14 14 13 13 14 19 17 16 24 29 30 28 25 22 18 15 13 12 11 12 13 13 15 16 16 18 21 22
52 50 44 40 40 39 36 28 19 16 19 14 22 21 19 13 13 15 16 17 17 21 20 20 24 27 27 26 23 19 15 14 12 11 10 11 12 12 13 15 15 18 20 21
52 56 51 44 45 43 38 31 22 21 17 18 22 21 14 17 15 17 19 20 21 24 24 23 24 25 26 25 21 17 14 13 11 10 10 11 10 10 12 13 14 16 17 18
52 53 51 44 40 42 40 40 26 20 20 19 18 21 19 14 18 19 20 21 23 25 26 25 23 23 23 23 20 16 13 12 10 9 9 9 8 9 10 11 11 14 16 17
53 49 53 47 46 43 43 37 34 29 24 25 19 23 16 13 9 18 16 22 27 29 27 25 22 21 21 21 18 14 13 11 9 8 8 8 8 8 10 9 10 12 13 14
54 52 52 52 53 48 46 45 42 28 26 25 22 19 16 14 14 20 18 28 27 26 26 24 22 20 19 17 15 13 11 10 9 7 7 7 8 9 9 10 9 10 11 13
56 54 50 53 47 46 46 45 41 34 34 30 25 19 25 18 17 22 20 25 27 26 26 23 22 20 18 16 14 12 11 9 8 6 5 6 7 9 9 10 9 10 13 16
58 60 57 52 54 54 53 48 46 37 31 38 29 25 26 19 16 21 23 27 28 25 25 24 22 21 19 17 15 13 11 9 6 5 4 6 8 10 10 11 11 12 14 17
62 61 58 57 51 53 57 51 48 44 40 33 39 25 27 23 22 24 24 25 25 23 22 21 23 21 18 17 16 14 11 8 6 5 5 5 8 8 7 6 8 11 15 19
66 62 56 55 45 54 54 50 52 49 42 38 35 36 26 24 26 25 25 27 26 23 23 21 20 18 17 16 16 14 11 7 6 6 4 6 7 7 6 5 10 14 17 20
63 62 60 58 60 61 59 55 54 51 46 41 38 38 38 31 32 31 23 25 27 26 24 21 19 17 16 17 15 13 10 8 8 4 5 5 6 6 7 10 14 15 19 21
67 67 65 60 59 60 64 60 57 54 49 47 46 47 40 35 36 35 32 29 24 24 22 17 15 15 16 15 14 12 10 10 7 4 5 6 7 8 11 13 18 20 22 23
67 67 65 61 59 66 60 57 57 58 52 48 47 48 45 41 38 38 34 31 26 26 22 15 16 15 17 18 15 13 8 8 6 6 6 8 8 9 11 14 19 23 24 23
64 66 66 65 65 60 61 61 60 58 53 53 54 53 51 47 41 45 40 32 28 24 20 18 19 18 20 20 14 12 6 10 7 6 2 4 8 10 14 13 16 19 24 21
63 64 67 66 65 65 57 59 62 60 60 54 53 52 57 53 53 47 43 38 31 28 26 22 23 28 24 22 18 11 7 12 9 5 2 5 9 12 13 17 20 20 23 25
63 64 63 67 68 63 64 60 62 62 55 55 51 53 52 59 53 46 45 43 38 36 33 28 28 31 25 25 20 13 13 15 10 6 6 6 10 14 16 20 24 21 24 27
62 63 63 63 66 68 65 63 61 56 56 52 55 52 55 53 50 53 51 46 45 42 37 32 29 35 33 29 25 19 16 20 17 16 14 10 12 15 16 20 26 23 24 25
62 62 61 61 62 65 63 62 58 55 52 51 50 54 52 57 55 51 54 49 45 44 42 38 33 38 36 33 30 22 18 22 21 22 17 14 16 18 20 22 26 27 25 25
63 64 64 65 59 61 57 63 58 53 54 52 50 50 46 50 56 56 51 53 50 47 46 43 38 41 40 35 35 26 25 21 24 23 22 19 20 21 22 25 27 33 32 31
62 63 66 62 62 53 59 62 61 57 52 53 52 47 46 43 43 46 51 53 50 53 56 51 42 41 41 42 41 36 26 24 28 31 27 23 26 28 28 31 32 37 36 34
62 54 63 54 59 54 54 60 63 55 55 49 48 48 47 45 41 39 42 47 46 49 57 54 46 46 45 46 44 40 36 33 33 32 29 30 32 35 34 34 34 39 36 34
Wind_Direction
223 224 211 201 190 193 218 221 226 238 239 234 230 235 254 239 198 181 173 161 170 175 175 170 164 162 158 156 156 153 151 148 139 143 127 126 125 122 106 108 103 88 75 68
223 218 217 214 203 206 220 224 239 246 244 240 238 238 244 227 208 183 183 160 159 168 171 171 166 165 158 157 154 150 154 145 145 140 130 123 123 114 105 101 90 81 71 64
224 222 230 224 219 209 216 229 236 238 242 255 248 249 246 221 192 169 170 163 154 168 176 174 169 164 157 157 156 155 152 149 147 141 129 123 128 111 105 100 95 83 73 63
224 223 228 226 222 212 215 233 232 236 237 266 241 207 247 228 200 177 174 167 159 166 174 180 178 167 165 166 160 155 155 151 151 142 136 131 127 112 98 98 91 81 72 67
220 221 223 221 204 210 211 231 232 230 228 235 236 235 242 229 210 195 183 187 173 174 181 175 179 177 171 165 160 162 155 157 153 141 139 136 129 112 99 101 91 79 67 61
219 222 223 208 210 219 219 224 240 238 228 237 222 215 219 234 210 201 188 187 184 171 172 162 161 162 163 163 162 161 158 157 153 143 140 134 124 110 104 92 79 70 67 55
215 220 217 212 209 213 214 216 230 242 231 214 226 204 169 204 209 204 188 187 188 171 161 161 160 162 164 164 167 165 161 161 154 144 137 127 120 113 101 89 79 72 65 53
220 219 215 206 211 215 210 209 213 234 214 214 224 195 186 190 199 199 191 189 186 181 170 170 171 168 171 171 173 171 166 162 154 150 137 126 120 108 97 88 81 74 61 46
217 219 221 219 216 216 208 216 212 229 236 197 236 204 201 191 206 201 200 202 188 186 177 173 178 179 176 178 178 176 168 164 161 157 137 128 120 109 105 95 85 74 57 39
222 217 222 214 215 215 218 217 212 219 220 215 211 211 201 208 219 208 213 202 185 184 186 175 178 182 186 186 182 175 172 169 166 158 143 132 115 115 103 98 85 66 46 25
216 213 219 216 214 215 211 214 214 222 214 212 206 221 209 208 208 206 201 180 180 186 183 177 180 185 187 185 180 178 179 174 170 158 151 129 118 107 95 84 67 48 24 6
217 213 210 216 212 218 221 220 219 210 216 203 204 202 220 209 216 202 189 180 178 179 182 182 184 187 188 189 186 182 186 179 175 167 144 123 111 94 80 66 48 26 10 0
211 217 208 214 209 212 219 213 218 219 204 214 192 193 206 191 203 197 188 187 179 182 184 185 184 189 193 192 190 188 185 182 173 176 155 123 94 73 63 49 31 6 352 344
214 216 212 216 210 213 213 207 213 215 214 209 206 190 192 186 193 188 191 186 189 188 182 187 190 194 197 196 193 193 192 192 187 183 162 102 74 58 53 26 4 339 334 335
212 214 215 212 216 219 220 212 209 212 213 208 208 194 196 193 197 188 192 189 188 188 187 187 193 197 200 201 200 201 199 196 207 187 129 73 59 47 31 341 325 325 324 328
210 211 213 212 213 214 218 214 213 216 215 213 201 207 193 193 201 207 189 195 183 188 190 188 196 202 207 211 211 212 212 212 224 178 87 59 28 3 330 323 320 312 316 321
207 210 211 211 213 218 217 213 212 215 216 213 208 195 190 199 203 207 218 203 201 188 185 188 197 203 211 214 214 218 222 225 210 135 82 50 23 349 324 311 306 307 311 315
207 209 209 210 211 218 212 217 215 215 215 213 211 194 199 197 205 213 220 212 206 203 201 206 210 213 225 224 221 221 238 213 173 120 91 40 21 352 327 317 306 310 310 316
207 208 209 209 214 217 216 215 215 218 215 210 206 195 199 200 201 212 214 213 209 211 212 226 227 215 227 231 211 220 238 194 162 141 101 359 357 340 330 315 304 304 308 311
209 208 208 210 213 217 217 219 218 219 220 216 208 203 201 201 208 211 217 218 210 215 222 225 232 223 224 222 219 221 229 207 170 183 282 304 322 326 325 323 324 319 307 302
210 209 208 213 211 214 217 219 218 220 220 220 218 214 204 206 212 208 212 219 219 218 221 224 226 223 227 228 227 223 240 212 211 242 249 295 293 305 327 334 333 311 301 292
212 210 209 213 212 218 217 219 221 221 221 218 219 221 217 213 216 213 215 218 222 223 222 224 228 223 227 231 229 233 241 222 232 267 296 291 299 297 317 326 329 310 292 288
209 210 213 213 214 217 217 223 227 223 221 223 219 218 218 223 219 214 217 221 224 227 225 225 228 220 226 230 238 240 242 249 244 266 285 299 287 289 299 309 324 319 303 299
211 210 213 211 216 214 216 223 225 223 223 223 224 217 219 220 221 216 214 220 223 224 229 229 229 223 225 230 236 236 239 246 255 266 288 284 282 284 291 307 314 321 311 306
209 210 213 214 215 212 215 218 223 222 223 223 226 223 218 220 222 224 221 221 225 225 230 230 228 225 228 231 237 240 249 260 269 271 282 279 280 285 291 301 313 315 307 303
206 209 212 216 215 214 214 218 222 222 223 224 225 225 222 221 221 225 223 221 218 228 232 231 229 227 228 232 241 251 263 261 271 272 277 276 279 281 289 297 312 308 300 298